Location: Sternwarte ZA, Rosenfeld-Brittheim
(48.2889°N, 8.6789°E)
Time: 17:49:37
(UTC+02:00)

ISS - Pass Details

Date: 29 May 2020
Orbit: 417 x 420 km, 51.6° (Epoch: 26 May)

Event Time Altitude Azimuth Distance (km) Brightness Sun altitude
Rises 22:21:13 0° 292° (WNW) 2,367 1.4 -9.0°
Reaches altitude 10° 22:23:20 10° 289° (WNW) 1,501 0.1 -9.3°
Maximum altitude 22:26:40 66° 208° (SSW) 462 -3.7 -9.6°
Enters shadow 22:29:24 14° 126° (SE) 1,257 -2.0 -9.9°
